Location: Foligno
(42.9600°N, 12.7050°E)
Time: 12:17:03
(UTC+02:00)

ISS - Pass Details

Date: 22 May 2018
Orbit: 402 x 407 km, 51.6° (Epoch: 24 May)

Event Time Altitude Azimuth Distance (km) Brightness Sun altitude
Rises 22:58:44 0° 264° (W) 2,314 0.4 -20.1°
Reaches altitude 10° 23:00:58 10° 275° (W) 1,456 -0.6 -20.3°
Maximum altitude 23:03:53 30° 339° (NNW) 754 -1.8 -20.6°
Drops below altitude 10° 23:06:50 10° 43° (NE) 1,458 -0.8 -20.9°
Sets 23:09:04 0° 55° (NE) 2,319 0.1 -21.1°
